Погода в Знаменке

Россия / Амурская область     50°37′21″N   129°03′17″E
темп.,
°C
ветер,
м/с
пор.,
м/с
влажн.,
%
обл.,
%
осадки,
мм/ч
давл.,
гПа
погр.,
м
22 октября, пт
пт2200:00−2сз37860 0.0 1019104
03:00−2сз36855 0.0 102092
06:00−3сз36855 0.0 102184
09:000сз35715 0.0 1021162
12:00+5зсз34515 0.0 1020496
15:00+7з36515 0.0 1019801
18:00+3з34695 0.0 102042
21:00+2з35755 0.0 102076
23 октября, сб
сб2300:00+2з34805 0.0 101952
03:00+1з34825 0.0 101947
06:00+1зюз33815 0.0 101932
09:00+4зюз35694 0.0 1019139
12:00+8з34530 0.0 1018440
15:00+10зюз45490 0.0 1017664
18:00+6зюз33665 0.0 101836
21:00+4з34755 0.0 101946
24 октября, вс
вс2400:00+3з22810 0.0 101921
03:00+2з22825 0.0 101910
06:00+1з11825 0.0 101910
09:00+4юз11690 0.0 101990
12:00+9ююз22550 0.0 1018480
15:00+10ююз33515 0.0 1017741
18:00+6ю33680 0.0 101834
21:00+4ю35724 0.0 101864
25 октября, пн
пн2500:00+3ююз34764 0.0 101747
03:00+2ю35790 0.0 101772
06:00+1ю47824 0.0 1016101
09:00+3ю48685 0.0 1016215
12:00+8ююз57481 0.0 1014571
15:00+10ююз57460 0.0 1013836
18:00+5ю47634 0.0 1014100
21:00+4ююз49705 0.0 1014144
26 октября, вт
вт2600:00+3ююз36775 0.0 101385
03:00+2ю36825 0.0 101284
06:00+1ю46872 0.0 101295
09:00+3ю47745 0.0 1012202
12:00+8ююз4553100 0.0 1011591
15:00+8юз3553100 0.0 1010811
18:00+5зсз3467100 0.0 1011104
21:00+4сз3678100 0.0 1011162